Location: Holyhead Bay
(53.3667°N, 4.6667°W)
Time: 19:18:06
(UTC+00:00)

ATLAS 5 CENTAUR R/B - Pass Details

Date: 24 November 2020
Orbit: 520 x 1138 km, 63.4° (Epoch: 02 January)

Event Time Altitude Azimuth Distance (km) Brightness Sun altitude
Rises 16:46:38 0° 310° (NW) 3,237 5.6 -5.5°
Reaches altitude 10° 16:49:01 10° 302° (WNW) 2,401 5.0 -5.8°
Maximum altitude 16:54:09 38° 236° (SW) 1,355 4.1 -6.5°
Drops below altitude 10° 17:00:04 10° 171° (S) 2,776 5.1 -7.3°
Sets 17:03:01 0° 164° (SSE) 3,804 5.7 -7.7°
